Weather History for Richlands, VA

Change the Weather History Date:

Monday, February 4, 2013

  Actual Average (KBLF) Record (KBLF)
Temperature  
Mean Temperature 27 °F 35 °F  
Max Temperature 37 °F 44 °F 65 °F (1962)
Min Temperature 17 °F 27 °F -8 °F (1970)
Degree Days  
Heating Degree Days 38 30  
Month to date heating degree days 120  
Since 1 July heating degree days 2840  
Cooling Degree Days 0 0  
Month to date cooling degree days 0  
Year to date cooling degree days 0  
Moisture  
Dew Point 20 °F    
Average Humidity 73    
Maximum Humidity 100    
Minimum Humidity 48    
Precipitation  
Precipitation 0.00 in 0.09 in 1.41 in (1975)
Month to date precipitation 0.38  
Year to date precipitation 3.28  
Snow  
Snow 0.00 in - - ()
Month to date snowfall  
Since 1 July snowfall  
Snow Depth -    
Sea Level Pressure  
Sea Level Pressure 29.95 in    
Wind  
Wind Speed 6 mph (WSW)    
Max Wind Speed 15 mph    
Max Gust Speed 25 mph    
Visibility 10 miles    
Events      
T = Trace of Precipitation, MM = Missing Value Source: NWS Daily Summary

Daily Weather History Graph

Daily Weather History Graph

Search for Another Location

Airport:

Trip Planner

Search our weather history database for the weather conditions in past years. The results will help you decide how hot, cold, wet, or windy it might be!

Date:

Astronomy

Feb. 04, 2013 Rise Set
Actual Time 7:27 AM EST 5:55 PM EST
Civil Twilight 6:59 AM EST 6:22 PM EST
Nautical Twilight 6:28 AM EST 6:53 PM EST
Astronomical Twilight 5:58 AM EST 7:24 PM EST
Moon 1:59 AM EST (2/4) 12:20 PM EST (2/4)
Length of Visible Light 11h 23m
Length of Day
10h 28m
Last Quarter, 37% of the Moon is Illuminated
Feb 4
Last Quarter
Feb 10
New
Feb 17
First Quarter
Feb 25
Full
Mar 4
Last Quarter

Hourly Weather History & Observations

Time (EST) Temp. Windchill Dew Point Humidity Pressure Visibility Wind Dir Wind Speed Gust Speed Precip Events Conditions
12:15 AM 21.2 °F 10.9 °F 17.6 °F 86% 30.02 in 10.0 mi WNW 9.2 mph - N/A   Mostly Cloudy
12:35 AM 21.2 °F 10.9 °F 17.6 °F 86% 30.02 in 10.0 mi West 9.2 mph - N/A   Mostly Cloudy
12:55 AM 21.2 °F 13.6 °F 17.6 °F 86% 30.02 in 10.0 mi West 5.8 mph - N/A   Mostly Cloudy
1:15 AM 21.2 °F 12.6 °F 17.6 °F 86% 30.01 in 10.0 mi West 6.9 mph - N/A   Overcast
1:35 AM 21.2 °F 14.9 °F 17.6 °F 86% 30.02 in 10.0 mi West 4.6 mph - N/A   Mostly Cloudy
1:55 AM 21.2 °F 13.6 °F 17.6 °F 86% 30.00 in 10.0 mi WSW 5.8 mph - N/A   Partly Cloudy
2:15 AM 19.4 °F 10.4 °F 17.6 °F 93% 30.00 in 10.0 mi West 6.9 mph - N/A   Clear
2:55 AM 19.4 °F 14.3 °F 15.8 °F 86% 29.99 in 10.0 mi West 3.5 mph - N/A   Clear
3:15 AM 19.4 °F 12.8 °F 17.6 °F 93% 30.00 in 10.0 mi West 4.6 mph - N/A   Unknown
3:35 AM 19.4 °F 12.8 °F 17.6 °F 93% 30.01 in 10.0 mi West 4.6 mph - N/A   Scattered Clouds
3:55 AM 19.4 °F 11.5 °F 17.6 °F 93% 29.98 in 10.0 mi West 5.8 mph - N/A   Mostly Cloudy
4:15 AM 21.2 °F 14.9 °F 17.6 °F 86% 29.99 in 10.0 mi West 4.6 mph - N/A   Scattered Clouds
6:15 AM 19.4 °F - 17.6 °F 93% 30.00 in 10.0 mi Calm Calm - N/A   Clear
6:35 AM 19.4 °F 14.3 °F 17.6 °F 93% 30.00 in 10.0 mi West 3.5 mph - N/A   Clear
6:55 AM 17.6 °F - 17.6 °F 100% 30.00 in 10.0 mi Calm Calm - N/A   Clear
7:15 AM 17.6 °F - 17.6 °F 100% 30.00 in 10.0 mi Calm Calm - N/A   Clear
7:35 AM 19.4 °F - 17.6 °F 93% 30.01 in 10.0 mi Calm Calm - N/A   Clear
7:55 AM 19.4 °F 14.3 °F 17.6 °F 93% 30.02 in 10.0 mi WSW 3.5 mph - N/A   Clear
8:15 AM 19.4 °F - 17.6 °F 93% 30.03 in 10.0 mi Calm Calm - N/A   Clear
8:35 AM 21.2 °F 16.4 °F 17.6 °F 86% 30.03 in 10.0 mi Variable 3.5 mph - N/A   Clear
8:55 AM 21.2 °F 16.4 °F 17.6 °F 86% 30.04 in 10.0 mi Variable 3.5 mph - N/A   Clear
9:15 AM 21.2 °F - 19.4 °F 93% 30.03 in 10.0 mi Calm Calm - N/A   Clear
9:55 AM 21.2 °F - 19.4 °F 93% 30.00 in 10.0 mi Calm Calm - N/A   Clear
10:15 AM 21.2 °F - 19.4 °F 93% 29.99 in 10.0 mi Calm Calm - N/A   Clear
10:35 AM 24.8 °F 19.1 °F 21.2 °F 86% 30.00 in 10.0 mi WSW 4.6 mph - N/A   Clear
10:55 AM 23.0 °F - 19.4 °F 86% 30.00 in 10.0 mi Calm Calm - N/A   Clear
11:15 AM 24.8 °F 20.5 °F 21.2 °F 86% 30.00 in 10.0 mi South 3.5 mph - N/A   Clear
11:35 AM 24.8 °F 20.5 °F 21.2 °F 86% 29.99 in 10.0 mi Variable 3.5 mph - N/A   Clear
11:55 AM 26.6 °F - 21.2 °F 80% 29.99 in 10.0 mi Calm Calm - N/A   Clear
12:15 PM 28.4 °F - 21.2 °F 74% 29.98 in 10.0 mi Calm Calm - N/A   Clear
12:35 PM 28.4 °F 24.6 °F 21.2 °F 74% 29.97 in 10.0 mi South 3.5 mph - N/A   Clear
12:55 PM 28.4 °F - 21.2 °F 74% 29.96 in 10.0 mi Calm Calm - N/A   Partly Cloudy
1:15 PM 30.2 °F 26.7 °F 23.0 °F 75% 29.95 in 10.0 mi Variable 3.5 mph - N/A   Clear
1:35 PM 30.2 °F 25.4 °F 23.0 °F 75% 29.94 in 10.0 mi South 4.6 mph - N/A   Clear
1:55 PM 33.8 °F - 23.0 °F 65% 29.93 in 10.0 mi Calm Calm - N/A   Clear
2:15 PM 33.8 °F 29.6 °F 21.2 °F 60% 29.92 in 10.0 mi South 4.6 mph - N/A   Clear
2:35 PM 35.6 °F 30.7 °F 21.2 °F 56% 29.92 in 10.0 mi Variable 5.8 mph - N/A   Clear
2:55 PM 35.6 °F 30.7 °F 19.4 °F 52% 29.91 in 10.0 mi SW 5.8 mph - N/A   Partly Cloudy
3:15 PM 35.6 °F 31.7 °F 19.4 °F 52% 29.90 in 10.0 mi Variable 4.6 mph - N/A   Scattered Clouds
3:35 PM 35.6 °F 32.8 °F 19.4 °F 52% 29.90 in 10.0 mi Variable 3.5 mph - N/A   Mostly Cloudy
3:55 PM 35.6 °F 32.8 °F 17.6 °F 48% 29.89 in 10.0 mi Variable 3.5 mph - N/A   Partly Cloudy
4:15 PM 35.6 °F 32.8 °F 17.6 °F 48% 29.89 in 10.0 mi Variable 3.5 mph - N/A   Clear
4:35 PM 35.6 °F - 17.6 °F 48% 29.88 in 10.0 mi Calm Calm - N/A   Partly Cloudy
4:55 PM 35.6 °F 32.8 °F 21.2 °F 56% 29.88 in 10.0 mi Variable 3.5 mph - N/A   Partly Cloudy
5:15 PM 35.6 °F 32.8 °F 19.4 °F 52% 29.87 in 10.0 mi Variable 3.5 mph - N/A   Clear
5:35 PM 37.4 °F 31.4 °F 21.2 °F 52% 29.87 in 10.0 mi WSW 8.1 mph - N/A   Scattered Clouds
5:55 PM 37.4 °F 31.4 °F 21.2 °F 52% 29.88 in 10.0 mi WSW 8.1 mph - N/A   Mostly Cloudy
6:15 PM 37.4 °F 29.3 °F 21.2 °F 52% 29.88 in 10.0 mi WSW 12.7 mph - N/A   Scattered Clouds
6:35 PM 37.4 °F 30.3 °F 21.2 °F 52% 29.88 in 10.0 mi WSW 10.4 mph 24.2 mph N/A   Partly Cloudy
6:55 PM 37.4 °F 30.3 °F 21.2 °F 52% 29.89 in 10.0 mi WSW 10.4 mph 25.3 mph N/A   Clear
7:15 PM 35.6 °F 26.2 °F 21.2 °F 56% 29.89 in 10.0 mi West 15.0 mph - N/A   Clear
7:35 PM 35.6 °F 28.0 °F 21.2 °F 56% 29.89 in 10.0 mi WSW 10.4 mph - N/A   Clear
7:55 PM 35.6 °F 26.6 °F 21.2 °F 56% 29.90 in 10.0 mi WSW 13.8 mph - N/A   Mostly Cloudy
8:15 PM 35.6 °F 27.5 °F 21.2 °F 56% 29.90 in 10.0 mi WSW 11.5 mph - N/A   Scattered Clouds
8:35 PM 35.6 °F 27.5 °F 21.2 °F 56% 29.90 in 10.0 mi WSW 11.5 mph - N/A   Partly Cloudy
8:55 PM 35.6 °F 29.2 °F 23.0 °F 60% 29.90 in 10.0 mi WSW 8.1 mph - N/A   Scattered Clouds
9:15 PM 35.6 °F 27.1 °F 23.0 °F 60% 29.90 in 10.0 mi West 12.7 mph - N/A   Mostly Cloudy
9:35 PM 35.6 °F 29.2 °F 23.0 °F 60% 29.90 in 10.0 mi WSW 8.1 mph - N/A   Mostly Cloudy
9:55 PM 35.6 °F 29.2 °F 23.0 °F 60% 29.89 in 10.0 mi SW 8.1 mph - N/A   Overcast
10:15 PM 37.4 °F 30.3 °F 23.0 °F 56% 29.89 in 10.0 mi West 10.4 mph - N/A   Overcast
10:35 PM 35.6 °F 28.6 °F 23.0 °F 60% 29.89 in 10.0 mi WSW 9.2 mph - N/A   Overcast
10:55 PM 35.6 °F 27.5 °F 24.8 °F 65% 29.89 in 10.0 mi WSW 11.5 mph - N/A   Overcast
11:55 PM 35.6 °F 27.1 °F 24.8 °F 65% 29.88 in 10.0 mi WSW 12.7 mph 23.0 mph N/A   Mostly Cloudy